Location: Aiyekoto
(8.4333°N, 4.3667°E)
Time: 03:31:48
(UTC+00:00)

deb Explorer IX - Visible Passes

Search period start: 21 September 2020 00:00
Search period end: 01 October 2020 00:00
Orbit: 539 x 1104 km, 38.8° (Epoch: 20 September)

Date Brightness Start Highest point End Pass type
(mag) Time Alt. Az. Time Alt. Az. Time Alt. Az.
21 Sep ? 03:13:35 45° ENE 03:13:35 45° ENE 03:18:47 10° ESE visible
21 Sep ? 04:54:57 12° W 04:59:45 30° SW 05:05:37 10° SSE visible
22 Sep ? 02:52:37 25° ESE 02:52:37 25° ESE 02:55:27 10° ESE visible
22 Sep ? 04:33:59 21° WSW 04:36:32 29° SW 04:42:14 10° SSE visible
23 Sep ? 02:31:35 12° ESE 02:31:35 12° ESE 02:32:08 10° ESE visible
23 Sep ? 04:12:56 27° SW 04:13:22 28° SW 04:18:50 10° SSE visible
24 Sep ? 03:51:49 24° SSW 03:51:49 24° SSW 03:55:27 10° SSE visible
25 Sep ? 03:30:34 15° S 03:30:34 15° S 03:32:03 10° SSE visible
